STARLINK-4454, 53499

Orbit data source: Space-Track

STARLINK-4454, 53499 is a payload satellite owned by SpaceX/Seattle (US) in SSO that was launched on Fri, 12 Aug 2022 UTC via an FALCON 9 launch vehicle from the Air Force Western Test Range (AFWTR). Payload-class satellites include a variety of spacecraft equipped with specific instruments for various scientific and technological missions. These include communications satellites like Starlink; space stations such as the ISS; scientific satellites like the Hubble; Earth observation satellites from companies like Planet Labs, Umbra, and HawkEye 360; GPS; miniature CubeSats for education and research; and military/defense satellites.

Loading next visibility...
Identifier
53499, 2022-099AL
Orbit
SSO
Country
Flag of USUS
Related business
Manufacturer
SpaceX/Seattle
Mission
Operational Commercial Communications
Bus & Motor
STARLINK, Unknown motor
Mass
300 kg wet, ~275 kg dry
Launch date (UTC)
2022-08-12 (3 years ago)
Launch vehicle
FALCON 9
Launch site
Air Force Western Test Range (AFWTR)
Object type
Payload
Rocket body
Debris
Shape & HBR
Box + 1 Pan, 10.1 m
Radar Cross Section
13.562 m², Large (>1 m²)

Expand to show TLE details & history
Last TLE update: 9 hours ago

TLE from 9 hours ago
0 STARLINK-4454
1 53499U 22099AL  25308.80529556  .00005084  00000-0  35639-3 0  9996
2 53499  97.6035  68.1734 0001783  90.7549 269.3882 15.05642940177261
Epoch: 2025-11-04T19:19Z
TLE epoch observation values (Epoch: 2025-11-04T19:19:37.536Z)
Latitude
-0.00003°
Longitude
93.97996°
Altitude
552.611 km
Speed
7.585 km/s
True Right ascension
04h 32m 41s
True Declination
0° 00' 00"
Sunlit
Object was in full shadow at epoch
Visualization orbit readout
Latitude
Unknown
Longitude
Unknown
Altitude
Unknown
Speed
Unknown
Apparent Right ascension
Unknown
Apparent Declination
Unknown
Sunlit
N/A
Visualization observer readout
Local Sidereal Time
23:55:32
Azimuth
Unknown
Elevation
Unknown
Doppler factor
Unknown
Orbital elements
Apogee altitude
547.761 km
Perigee altitude
545.292 km
Semi-major axis
6,924.663 km
Eccentricity
0.00018
Inclination
97.6035°
RAAN
68.1734°
Arg. of periapsis
90.7549°
True anomaly
269.36777°
Mean anomaly
269.3882°
Eccentric anomaly
269.37798°
Mean motion
3.76656 °/min
Orbital period
95.58 mins
BSTAR
0.00035639
Loading maneuver chart data...
Computing Atmospheric mass density...
Loading historical data...
Loading historical data...
Loading historical data...
Loading historical data...
Loading historical data...
Loading historical data...
Loading historical data...

Documentation

Showing up to 5 results
|